GJZ 01 (62290 NORAD) Tracking and Keplerian Element Data

This shows tracking and keplerian element data for the satellite.

Feedback or suggestion? Click here.




ElementValue
Catalog62290
NameGJZ 01
Epoch Orbit705
Epoch Day34.94964851
Epoch Year2025
RAAN350.1583
Inclination59.9148
Eccentricity0.0013989
Argument of Perigee221.8553
Mean Anonmoly138.1371
Mean Motion13.42806441
Decay Rate-1E-08
L11 62290U 24238A 25034.94964851 -.00000001 00000+0 18890-3 0 9998
L22 62290 59.9148 350.1583 0013989 221.8553 138.1371 13.42806441 7057



Live tracking and technical data element details for GJZ 01 (NORAD 62290). GJZ 01 can be tracked NOW for your location showing map with azimuth and elevation plus other details from your city location.







IsCatalogInMostPopularTable: catalog: 62290, numindb: 8
Update: records affected: 1



GetName: 62290 GJZ 01

Hit Count: updated at: Sun, 18 May 2025 22:44:16 GMT